Time,TemperatureF,DewpointF,PressureIn,WindDirection,WindDirectionDegrees,WindSpeedMPH,WindSpeedGustMPH,Humidity,HourlyPrecipIn,Conditions,Clouds,dailyrainin,SoftwareType,DateUTC
2013-03-10 00:04:00,38.1,35.0,29.55,ESE,112,0.0,-999.0,89,0.00,,,0.00,Rainwise IP-100,2013-03-10 08:04:00,
2013-03-10 00:09:00,37.7,35.0,29.55,WSW,247,0.0,-999.0,89,0.00,,,0.00,Rainwise IP-100,2013-03-10 08:09:00,
2013-03-10 00:14:00,37.8,35.0,29.55,WSW,247,0.0,-999.0,89,0.00,,,0.00,Rainwise IP-100,2013-03-10 08:14:00,
2013-03-10 00:19:00,38.2,35.0,29.56,WSW,247,1.6,-999.0,89,0.00,,,0.00,Rainwise IP-100,2013-03-10 08:19:00,
2013-03-10 00:24:00,37.7,35.0,29.55,WSW,247,2.6,-999.0,89,0.00,,,0.00,Rainwise IP-100,2013-03-10 08:24:00,
2013-03-10 00:29:00,37.3,35.0,29.55,WSW,247,2.8,-999.0,89,0.00,,,0.00,Rainwise IP-100,2013-03-10 08:29:00,
2013-03-10 00:34:00,37.2,35.0,29.55,WSW,247,0.0,-999.0,90,0.00,,,0.00,Rainwise IP-100,2013-03-10 08:34:00,
2013-03-10 00:39:00,37.4,35.0,29.55,WSW,247,1.4,-999.0,90,0.00,,,0.00,Rainwise IP-100,2013-03-10 08:39:00,
2013-03-10 00:44:00,37.4,35.0,29.56,NNW,337,0.0,-999.0,90,0.00,,,0.00,Rainwise IP-100,2013-03-10 08:44:00,
2013-03-10 00:50:00,37.0,35.0,29.56,NNW,337,0.0,-999.0,90,0.00,,,0.00,Rainwise IP-100,2013-03-10 08:50:00,
2013-03-10 00:55:00,36.7,35.0,29.56,NNW,337,0.0,-999.0,90,0.00,,,0.00,Rainwise IP-100,2013-03-10 08:55:00,
2013-03-10 01:00:00,36.5,35.0,29.56,WNW,292,0.0,-999.0,91,0.00,,,0.00,Rainwise IP-100,2013-03-10 09:00:00,
2013-03-10 01:05:00,36.4,33.0,29.55,West,270,3.0,-999.0,91,0.00,,,0.00,Rainwise IP-100,2013-03-10 09:05:00,
2013-03-10 01:10:00,36.3,33.0,29.55,WSW,247,1.4,-999.0,91,0.00,,,0.00,Rainwise IP-100,2013-03-10 09:10:00,
2013-03-10 01:15:00,36.9,35.0,29.56,NE,45,0.0,-999.0,91,0.00,,,0.00,Rainwise IP-100,2013-03-10 09:15:00,
2013-03-10 01:20:00,37.4,35.0,29.55,NE,45,0.0,-999.0,91,0.00,,,0.00,Rainwise IP-100,2013-03-10 09:20:00,
2013-03-10 01:25:00,36.9,35.0,29.56,NE,45,1.4,-999.0,90,0.00,,,0.00,Rainwise IP-100,2013-03-10 09:25:00,
2013-03-10 01:30:00,36.7,35.0,29.56,NE,45,0.0,-999.0,90,0.00,,,0.00,Rainwise IP-100,2013-03-10 09:30:00,
2013-03-10 01:35:00,36.7,35.0,29.56,NE,45,0.0,-999.0,91,0.00,,,0.00,Rainwise IP-100,2013-03-10 09:35:00,
2013-03-10 01:40:00,36.5,35.0,29.56,NE,45,0.0,-999.0,91,0.00,,,0.00,Rainwise IP-100,2013-03-10 09:40:00,
2013-03-10 01:45:00,36.4,33.0,29.56,NE,45,0.0,-999.0,91,0.00,,,0.00,Rainwise IP-100,2013-03-10 09:45:00,
2013-03-10 01:50:00,36.1,33.0,29.56,NE,45,0.0,-999.0,91,0.00,,,0.00,Rainwise IP-100,2013-03-10 09:50:00,
2013-03-10 01:55:00,35.7,33.0,29.56,NE,45,0.0,-999.0,91,0.00,,,0.00,Rainwise IP-100,2013-03-10 09:55:00,
2013-03-10 03:00:00,35.6,33.0,29.56,WNW,292,2.3,-999.0,92,0.00,,,0.00,Rainwise IP-100,2013-03-10 10:00:00,
2013-03-10 03:05:00,35.3,32.0,29.56,WNW,292,0.0,-999.0,92,0.00,,,0.00,Rainwise IP-100,2013-03-10 10:05:00,
2013-03-10 03:10:00,35.3,32.0,29.56,WNW,292,0.0,-999.0,92,0.00,,,0.00,Rainwise IP-100,2013-03-10 10:10:00,
2013-03-10 03:15:00,35.4,33.0,29.55,WNW,292,0.0,-999.0,93,0.00,,,0.00,Rainwise IP-100,2013-03-10 10:15:00,
2013-03-10 03:20:00,35.4,33.0,29.56,WNW,292,1.6,-999.0,93,0.00,,,0.00,Rainwise IP-100,2013-03-10 10:20:00,
2013-03-10 03:25:00,35.4,33.0,29.55,WSW,247,0.0,-999.0,93,0.00,,,0.00,Rainwise IP-100,2013-03-10 10:25:00,
2013-03-10 03:30:00,35.6,35.0,29.55,WSW,247,2.1,-999.0,93,0.00,,,0.00,Rainwise IP-100,2013-03-10 10:30:00,
2013-03-10 03:35:00,35.8,35.0,29.56,ESE,112,3.5,-999.0,93,0.00,,,0.00,Rainwise IP-100,2013-03-10 10:35:00,
2013-03-10 03:40:00,35.2,32.0,29.55,ESE,112,0.0,-999.0,92,0.00,,,0.00,Rainwise IP-100,2013-03-10 10:40:00,
2013-03-10 03:45:00,34.7,32.0,29.56,WSW,247,2.1,-999.0,92,0.00,,,0.00,Rainwise IP-100,2013-03-10 10:45:00,
2013-03-10 03:50:00,34.4,33.0,29.56,WSW,247,0.0,-999.0,93,0.00,,,0.00,Rainwise IP-100,2013-03-10 10:50:00,
2013-03-10 03:55:00,34.4,33.0,29.55,WSW,247,2.3,-999.0,94,0.00,,,0.00,Rainwise IP-100,2013-03-10 10:55:00,
2013-03-10 04:00:00,34.2,33.0,29.55,WSW,247,1.9,-999.0,94,0.00,,,0.00,Rainwise IP-100,2013-03-10 11:00:00,
2013-03-10 04:05:00,34.0,33.0,29.54,WSW,247,0.0,-999.0,94,0.00,,,0.00,Rainwise IP-100,2013-03-10 11:05:00,
2013-03-10 04:10:00,34.0,33.0,29.55,WSW,247,0.0,-999.0,94,0.00,,,0.00,Rainwise IP-100,2013-03-10 11:10:00,
2013-03-10 04:15:00,33.8,33.0,29.55,WSW,247,1.9,-999.0,95,0.00,,,0.00,Rainwise IP-100,2013-03-10 11:15:00,
2013-03-10 04:20:00,33.9,33.0,29.55,WSW,247,0.0,-999.0,95,0.00,,,0.00,Rainwise IP-100,2013-03-10 11:20:00,
2013-03-10 04:25:00,34.4,33.0,29.55,WSW,247,0.0,-999.0,95,0.00,,,0.00,Rainwise IP-100,2013-03-10 11:25:00,
2013-03-10 04:30:00,34.8,33.0,29.55,WSW,247,0.0,-999.0,96,0.00,,,0.00,Rainwise IP-100,2013-03-10 11:30:00,
2013-03-10 04:35:00,34.5,33.0,29.55,WSW,247,0.0,-999.0,96,0.00,,,0.00,Rainwise IP-100,2013-03-10 11:35:00,
2013-03-10 04:40:00,34.0,33.0,29.55,WSW,247,2.1,-999.0,96,0.00,,,0.00,Rainwise IP-100,2013-03-10 11:40:00,
2013-03-10 04:45:00,33.6,33.0,29.55,WSW,247,1.2,-999.0,96,0.00,,,0.00,Rainwise IP-100,2013-03-10 11:45:00,
2013-03-10 04:50:00,33.4,32.0,29.54,WSW,247,1.6,-999.0,95,0.00,,,0.00,Rainwise IP-100,2013-03-10 11:50:00,
2013-03-10 04:55:00,33.5,33.0,29.54,WSW,247,0.0,-999.0,95,0.00,,,0.00,Rainwise IP-100,2013-03-10 11:55:00,
2013-03-10 05:00:00,34.0,33.0,29.55,WSW,247,0.0,-999.0,96,0.00,,,0.00,Rainwise IP-100,2013-03-10 12:00:00,
2013-03-10 05:05:00,34.6,33.0,29.55,WSW,247,0.0,-999.0,96,0.00,,,0.00,Rainwise IP-100,2013-03-10 12:05:00,
2013-03-10 05:10:00,34.5,33.0,29.54,WSW,247,0.0,-999.0,95,0.00,,,0.00,Rainwise IP-100,2013-03-10 12:10:00,
2013-03-10 05:15:00,33.9,33.0,29.55,WSW,247,1.2,-999.0,95,0.00,,,0.00,Rainwise IP-100,2013-03-10 12:15:00,
2013-03-10 05:20:00,33.7,33.0,29.55,WSW,247,0.0,-999.0,95,0.00,,,0.00,Rainwise IP-100,2013-03-10 12:20:00,
2013-03-10 05:25:00,33.6,33.0,29.54,WSW,247,1.2,-999.0,95,0.00,,,0.00,Rainwise IP-100,2013-03-10 12:25:00,
2013-03-10 05:30:00,33.6,33.0,29.55,WSW,247,0.0,-999.0,96,0.00,,,0.00,Rainwise IP-100,2013-03-10 12:30:00,
2013-03-10 05:35:00,33.8,33.0,29.55,WSW,247,1.9,-999.0,96,0.00,,,0.00,Rainwise IP-100,2013-03-10 12:35:00,
2013-03-10 05:40:00,34.0,33.0,29.55,WSW,247,0.0,-999.0,96,0.00,,,0.00,Rainwise IP-100,2013-03-10 12:40:00,
2013-03-10 05:45:00,34.2,33.0,29.55,WSW,247,0.0,-999.0,96,0.00,,,0.00,Rainwise IP-100,2013-03-10 12:45:00,
2013-03-10 05:50:00,34.4,33.0,29.55,WSW,247,0.0,-999.0,96,0.00,,,0.00,Rainwise IP-100,2013-03-10 12:50:00,
2013-03-10 05:55:00,34.5,33.0,29.55,WSW,247,0.0,-999.0,96,0.00,,,0.00,Rainwise IP-100,2013-03-10 12:55:00,
2013-03-10 06:00:00,34.5,33.0,29.55,WSW,247,0.0,-999.0,96,0.00,,,0.00,Rainwise IP-100,2013-03-10 13:00:00,
2013-03-10 06:05:00,34.8,33.0,29.54,WSW,247,0.0,-999.0,96,0.00,,,0.00,Rainwise IP-100,2013-03-10 13:05:00,
2013-03-10 06:10:00,34.8,33.0,29.54,WNW,292,0.0,-999.0,95,0.00,,,0.00,Rainwise IP-100,2013-03-10 13:10:00,
2013-03-10 06:15:00,34.2,33.0,29.55,WNW,292,2.1,-999.0,95,0.00,,,0.00,Rainwise IP-100,2013-03-10 13:15:00,
2013-03-10 06:20:00,33.8,33.0,29.55,WNW,292,2.3,-999.0,95,0.00,,,0.00,Rainwise IP-100,2013-03-10 13:20:00,
2013-03-10 06:25:00,33.6,33.0,29.55,WNW,292,0.0,-999.0,95,0.00,,,0.00,Rainwise IP-100,2013-03-10 13:25:00,
2013-03-10 06:30:00,33.5,33.0,29.55,WSW,247,0.0,-999.0,95,0.00,,,0.00,Rainwise IP-100,2013-03-10 13:30:00,
2013-03-10 06:35:00,33.9,33.0,29.55,WSW,247,0.0,-999.0,95,0.00,,,0.00,Rainwise IP-100,2013-03-10 13:35:00,
2013-03-10 06:40:00,34.4,33.0,29.55,WSW,247,0.0,-999.0,94,0.00,,,0.00,Rainwise IP-100,2013-03-10 13:40:00,
2013-03-10 06:45:00,34.4,33.0,29.55,WSW,247,0.0,-999.0,94,0.00,,,0.00,Rainwise IP-100,2013-03-10 13:45:00,
2013-03-10 06:50:00,33.8,33.0,29.56,WNW,292,0.0,-999.0,94,0.00,,,0.00,Rainwise IP-100,2013-03-10 13:50:00,
2013-03-10 06:55:00,33.2,32.0,29.56,South,180,1.9,-999.0,94,0.00,,,0.00,Rainwise IP-100,2013-03-10 13:55:00,
2013-03-10 07:00:00,32.9,32.0,29.56,South,180,0.0,-999.0,94,0.00,,,0.00,Rainwise IP-100,2013-03-10 14:00:00,
2013-03-10 07:05:00,32.7,32.0,29.56,SW,225,0.0,-999.0,95,0.00,,,0.00,Rainwise IP-100,2013-03-10 14:05:00,
2013-03-10 07:10:00,32.5,32.0,29.56,WSW,247,0.0,-999.0,95,0.00,,,0.00,Rainwise IP-100,2013-03-10 14:10:00,
2013-03-10 07:15:00,32.4,31.0,29.56,WSW,247,0.0,-999.0,96,0.00,,,0.00,Rainwise IP-100,2013-03-10 14:15:00,
2013-03-10 07:20:00,32.2,31.0,29.56,West,270,1.9,-999.0,96,0.00,,,0.00,Rainwise IP-100,2013-03-10 14:20:00,
2013-03-10 07:25:00,31.9,31.0,29.56,West,270,0.0,-999.0,96,0.00,,,0.00,Rainwise IP-100,2013-03-10 14:25:00,
2013-03-10 07:30:00,32.0,31.0,29.56,West,270,2.3,-999.0,96,0.00,,,0.00,Rainwise IP-100,2013-03-10 14:30:00,
2013-03-10 07:35:00,31.9,31.0,29.56,WSW,247,2.1,-999.0,96,0.00,,,0.00,Rainwise IP-100,2013-03-10 14:35:00,
2013-03-10 07:40:00,32.1,31.0,29.56,North,360,0.0,-999.0,96,0.00,,,0.00,Rainwise IP-100,2013-03-10 14:40:00,
2013-03-10 07:45:00,32.6,32.0,29.57,North,360,0.0,-999.0,96,0.00,,,0.00,Rainwise IP-100,2013-03-10 14:45:00,
2013-03-10 07:50:00,32.9,32.0,29.56,North,360,0.0,-999.0,96,0.00,,,0.00,Rainwise IP-100,2013-03-10 14:50:00,
2013-03-10 07:55:00,33.2,32.0,29.57,North,360,0.0,-999.0,96,0.00,,,0.00,Rainwise IP-100,2013-03-10 14:55:00,
2013-03-10 08:00:00,33.7,33.0,29.57,North,360,0.0,-999.0,96,0.00,,,0.00,Rainwise IP-100,2013-03-10 15:00:00,
2013-03-10 08:05:00,34.4,33.0,29.57,North,360,0.0,-999.0,96,0.00,,,0.00,Rainwise IP-100,2013-03-10 15:05:00,
2013-03-10 08:10:00,34.9,33.0,29.57,ENE,67,0.0,-999.0,95,0.00,,,0.00,Rainwise IP-100,2013-03-10 15:10:00,
2013-03-10 08:15:00,35.4,33.0,29.58,ENE,67,0.0,-999.0,96,0.00,,,0.00,Rainwise IP-100,2013-03-10 15:15:00,
2013-03-10 08:20:00,36.0,35.0,29.58,ENE,67,0.0,-999.0,96,0.00,,,0.00,Rainwise IP-100,2013-03-10 15:20:00,
2013-03-10 08:25:00,36.2,35.0,29.58,ENE,67,0.0,-999.0,95,0.00,,,0.00,Rainwise IP-100,2013-03-10 15:25:00,
2013-03-10 08:30:00,36.8,36.0,29.59,ENE,67,0.0,-999.0,95,0.00,,,0.00,Rainwise IP-100,2013-03-10 15:30:00,
2013-03-10 08:35:00,37.8,37.0,29.59,ENE,67,0.0,-999.0,95,0.00,,,0.00,Rainwise IP-100,2013-03-10 15:35:00,
2013-03-10 08:40:00,38.7,38.0,29.59,ENE,67,0.0,-999.0,95,0.00,,,0.00,Rainwise IP-100,2013-03-10 15:40:00,
2013-03-10 08:45:00,39.0,37.0,29.59,ENE,67,1.6,-999.0,93,0.00,,,0.00,Rainwise IP-100,2013-03-10 15:45:00,
2013-03-10 08:50:00,39.1,37.0,29.59,ENE,67,0.0,-999.0,92,0.00,,,0.00,Rainwise IP-100,2013-03-10 15:50:00,
2013-03-10 08:55:00,40.0,38.0,29.59,SSE,157,0.0,-999.0,92,0.00,,,0.00,Rainwise IP-100,2013-03-10 15:55:00,
2013-03-10 09:00:00,41.2,39.0,29.60,ESE,112,2.3,-999.0,91,0.00,,,0.00,Rainwise IP-100,2013-03-10 16:00:00,
2013-03-10 09:05:00,41.4,38.0,29.59,ESE,112,2.1,-999.0,90,0.00,,,0.00,Rainwise IP-100,2013-03-10 16:05:00,
2013-03-10 09:10:00,41.7,39.0,29.59,ESE,112,0.0,-999.0,88,0.00,,,0.00,Rainwise IP-100,2013-03-10 16:10:00,
2013-03-10 09:15:00,43.1,39.0,29.60,ESE,112,0.0,-999.0,87,0.00,,,0.00,Rainwise IP-100,2013-03-10 16:15:00,
2013-03-10 09:20:00,44.6,41.0,29.60,ESE,112,0.0,-999.0,86,0.00,,,0.00,Rainwise IP-100,2013-03-10 16:20:00,
2013-03-10 09:25:00,45.9,41.0,29.60,ESE,112,0.0,-999.0,85,0.00,,,0.00,Rainwise IP-100,2013-03-10 16:25:00,
2013-03-10 09:30:00,46.7,42.0,29.60,ESE,112,0.0,-999.0,83,0.00,,,0.00,Rainwise IP-100,2013-03-10 16:30:00,
2013-03-10 09:35:00,47.4,41.0,29.59,ESE,112,1.9,-999.0,79,0.00,,,0.00,Rainwise IP-100,2013-03-10 16:35:00,
2013-03-10 09:40:00,48.0,40.0,29.59,ESE,112,2.1,-999.0,73,0.00,,,0.00,Rainwise IP-100,2013-03-10 16:40:00,
2013-03-10 09:45:00,48.6,39.0,29.58,ESE,112,2.3,-999.0,69,0.00,,,0.00,Rainwise IP-100,2013-03-10 16:45:00,
2013-03-10 09:50:00,49.3,39.0,29.59,ESE,112,1.6,-999.0,68,0.00,,,0.00,Rainwise IP-100,2013-03-10 16:50:00,
2013-03-10 09:55:00,50.2,39.0,29.59,ESE,112,0.0,-999.0,67,0.00,,,0.00,Rainwise IP-100,2013-03-10 16:55:00,
2013-03-10 10:00:00,51.4,40.0,29.59,ESE,112,0.0,-999.0,67,0.00,,,0.00,Rainwise IP-100,2013-03-10 17:00:00,
2013-03-10 10:05:00,52.7,42.0,29.59,ESE,112,1.2,-999.0,67,0.00,,,0.00,Rainwise IP-100,2013-03-10 17:05:00,
2013-03-10 10:10:00,53.7,42.0,29.59,ESE,112,0.0,-999.0,66,0.00,,,0.00,Rainwise IP-100,2013-03-10 17:10:00,
2013-03-10 10:15:00,54.4,42.0,29.59,ESE,112,1.4,-999.0,63,0.00,,,0.00,Rainwise IP-100,2013-03-10 17:15:00,
2013-03-10 10:20:00,55.0,41.0,29.58,ESE,112,2.6,-999.0,60,0.00,,,0.00,Rainwise IP-100,2013-03-10 17:20:00,
2013-03-10 10:25:00,55.2,40.0,29.58,ESE,112,1.4,-999.0,56,0.00,,,0.00,Rainwise IP-100,2013-03-10 17:25:00,
2013-03-10 10:30:00,55.4,39.0,29.58,East,90,0.0,-999.0,55,0.00,,,0.00,Rainwise IP-100,2013-03-10 17:30:00,
2013-03-10 10:35:00,56.4,40.0,29.58,ESE,112,1.2,-999.0,55,0.00,,,0.00,Rainwise IP-100,2013-03-10 17:35:00,
2013-03-10 10:40:00,57.3,42.0,29.58,ESE,112,1.9,-999.0,56,0.00,,,0.00,Rainwise IP-100,2013-03-10 17:40:00,
2013-03-10 10:45:00,57.8,41.0,29.58,ESE,112,1.9,-999.0,54,0.00,,,0.00,Rainwise IP-100,2013-03-10 17:45:00,
2013-03-10 10:50:00,58.7,40.0,29.58,SE,135,2.3,-999.0,50,0.00,,,0.00,Rainwise IP-100,2013-03-10 17:50:00,
2013-03-10 10:55:00,59.7,39.0,29.58,NNE,22,4.4,-999.0,48,0.00,,,0.00,Rainwise IP-100,2013-03-10 17:55:00,
2013-03-10 11:00:00,61.1,37.0,29.58,North,360,4.7,-999.0,41,0.00,,,0.00,Rainwise IP-100,2013-03-10 18:00:00,
2013-03-10 11:05:00,63.5,33.0,29.58,NNW,337,1.9,-999.0,33,0.00,,,0.00,Rainwise IP-100,2013-03-10 18:05:00,
2013-03-10 11:10:00,65.1,33.0,29.57,WSW,247,0.0,-999.0,31,0.00,,,0.00,Rainwise IP-100,2013-03-10 18:10:00,
2013-03-10 11:15:00,65.9,35.0,29.57,NNW,337,4.7,-999.0,31,0.00,,,0.00,Rainwise IP-100,2013-03-10 18:15:00,
2013-03-10 11:20:00,66.4,33.0,29.57,NNE,22,3.5,-999.0,29,0.00,,,0.00,Rainwise IP-100,2013-03-10 18:20:00,
2013-03-10 11:25:00,66.6,32.0,29.57,WSW,247,2.8,-999.0,27,0.00,,,0.00,Rainwise IP-100,2013-03-10 18:25:00,
2013-03-10 11:30:00,66.9,32.0,29.57,NNW,337,1.9,-999.0,27,0.00,,,0.00,Rainwise IP-100,2013-03-10 18:30:00,
2013-03-10 11:35:00,67.4,32.0,29.57,North,360,2.8,-999.0,27,0.00,,,0.00,Rainwise IP-100,2013-03-10 18:35:00,
2013-03-10 11:40:00,67.8,33.0,29.57,WSW,247,1.6,-999.0,27,0.00,,,0.00,Rainwise IP-100,2013-03-10 18:40:00,
2013-03-10 11:45:00,68.3,33.0,29.56,WSW,247,0.0,-999.0,27,0.00,,,0.00,Rainwise IP-100,2013-03-10 18:45:00,
2013-03-10 11:50:00,68.7,33.0,29.56,North,360,4.2,-999.0,27,0.00,,,0.00,Rainwise IP-100,2013-03-10 18:50:00,
2013-03-10 11:55:00,69.1,32.0,29.56,North,360,4.2,-999.0,26,0.00,,,0.00,Rainwise IP-100,2013-03-10 18:55:00,
2013-03-10 12:00:00,68.5,32.0,29.55,WSW,247,2.8,-999.0,25,0.00,,,0.00,Rainwise IP-100,2013-03-10 19:00:00,
2013-03-10 12:05:00,67.8,31.0,29.55,WNW,292,2.3,-999.0,25,0.00,,,0.00,Rainwise IP-100,2013-03-10 19:05:00,
2013-03-10 12:10:00,67.8,33.0,29.55,West,270,2.3,-999.0,27,0.00,,,0.00,Rainwise IP-100,2013-03-10 19:10:00,
2013-03-10 12:15:00,67.8,33.0,29.55,NNW,337,0.0,-999.0,28,0.00,,,0.00,Rainwise IP-100,2013-03-10 19:15:00,
2013-03-10 12:20:00,68.4,35.0,29.55,WSW,247,3.5,-999.0,28,0.00,,,0.00,Rainwise IP-100,2013-03-10 19:20:00,
2013-03-10 12:25:00,69.1,33.0,29.55,North,360,0.0,-999.0,27,0.00,,,0.00,Rainwise IP-100,2013-03-10 19:25:00,
2013-03-10 12:30:00,69.5,35.0,29.55,WSW,247,2.8,-999.0,27,0.00,,,0.00,Rainwise IP-100,2013-03-10 19:30:00,
2013-03-10 12:35:00,69.7,35.0,29.55,North,360,4.7,-999.0,28,0.00,,,0.00,Rainwise IP-100,2013-03-10 19:35:00,
2013-03-10 12:40:00,70.1,35.0,29.54,NNW,337,0.0,-999.0,27,0.00,,,0.00,Rainwise IP-100,2013-03-10 19:40:00,
2013-03-10 12:45:00,70.3,33.0,29.54,WSW,247,3.0,-999.0,25,0.00,,,0.00,Rainwise IP-100,2013-03-10 19:45:00,
2013-03-10 12:50:00,70.2,33.0,29.53,NNW,337,0.0,-999.0,26,0.00,,,0.00,Rainwise IP-100,2013-03-10 19:50:00,
2013-03-10 12:55:00,70.3,33.0,29.53,North,360,2.1,-999.0,25,0.00,,,0.00,Rainwise IP-100,2013-03-10 19:55:00,
2013-03-10 13:00:00,70.7,32.0,29.54,NNE,22,2.8,-999.0,24,0.00,,,0.00,Rainwise IP-100,2013-03-10 20:00:00,
2013-03-10 13:05:00,70.8,31.0,29.53,NNW,337,4.0,-999.0,23,0.00,,,0.00,Rainwise IP-100,2013-03-10 20:05:00,
2013-03-10 13:11:00,70.4,32.0,29.53,NNE,22,0.0,-999.0,24,0.00,,,0.00,Rainwise IP-100,2013-03-10 20:11:00,
2013-03-10 13:16:00,70.2,32.0,29.53,WNW,292,1.4,-999.0,24,0.00,,,0.00,Rainwise IP-100,2013-03-10 20:16:00,
2013-03-10 13:21:00,70.5,32.0,29.53,North,360,4.4,-999.0,24,0.00,,,0.00,Rainwise IP-100,2013-03-10 20:21:00,
2013-03-10 13:26:00,71.0,32.0,29.52,NNW,337,1.2,-999.0,24,0.00,,,0.00,Rainwise IP-100,2013-03-10 20:26:00,
2013-03-10 13:31:00,71.2,32.0,29.52,SSE,157,1.4,-999.0,23,0.00,,,0.00,Rainwise IP-100,2013-03-10 20:31:00,
2013-03-10 13:36:00,71.2,32.0,29.52,WNW,292,4.0,-999.0,23,0.00,,,0.00,Rainwise IP-100,2013-03-10 20:36:00,
2013-03-10 13:41:00,71.2,32.0,29.52,NNW,337,2.3,-999.0,24,0.00,,,0.00,Rainwise IP-100,2013-03-10 20:41:00,
2013-03-10 13:46:00,71.3,32.0,29.51,NNE,22,3.7,-999.0,24,0.00,,,0.00,Rainwise IP-100,2013-03-10 20:46:00,
2013-03-10 13:51:00,71.6,33.0,29.51,West,270,0.0,-999.0,24,0.00,,,0.00,Rainwise IP-100,2013-03-10 20:51:00,
2013-03-10 13:56:00,72.0,32.0,29.51,North,360,5.1,-999.0,23,0.00,,,0.00,Rainwise IP-100,2013-03-10 20:56:00,
2013-03-10 14:01:00,72.3,32.0,29.50,South,180,2.6,-999.0,22,0.00,,,0.00,Rainwise IP-100,2013-03-10 21:01:00,
2013-03-10 14:06:00,72.8,33.0,29.51,NNW,337,3.3,-999.0,23,0.00,,,0.00,Rainwise IP-100,2013-03-10 21:06:00,
2013-03-10 14:11:00,72.9,33.0,29.51,ENE,67,2.3,-999.0,23,0.00,,,0.00,Rainwise IP-100,2013-03-10 21:11:00,
2013-03-10 14:16:00,72.5,31.0,29.51,NNE,22,1.9,-999.0,21,0.00,,,0.00,Rainwise IP-100,2013-03-10 21:16:00,
2013-03-10 14:21:00,72.4,31.0,29.50,WNW,292,2.6,-999.0,21,0.00,,,0.00,Rainwise IP-100,2013-03-10 21:21:00,
2013-03-10 14:26:00,73.0,31.0,29.50,WNW,292,1.2,-999.0,21,0.00,,,0.00,Rainwise IP-100,2013-03-10 21:26:00,
2013-03-10 14:31:00,73.2,31.0,29.50,ESE,112,2.8,-999.0,21,0.00,,,0.00,Rainwise IP-100,2013-03-10 21:31:00,
2013-03-10 14:36:00,72.2,32.0,29.50,NNE,22,5.4,-999.0,22,0.00,,,0.00,Rainwise IP-100,2013-03-10 21:36:00,
2013-03-10 14:41:00,72.3,31.0,29.49,WNW,292,1.9,-999.0,21,0.00,,,0.00,Rainwise IP-100,2013-03-10 21:41:00,
2013-03-10 14:46:00,73.5,32.0,29.49,WSW,247,2.1,-999.0,21,0.00,,,0.00,Rainwise IP-100,2013-03-10 21:46:00,
2013-03-10 14:51:00,73.7,32.0,29.49,WSW,247,0.0,-999.0,22,0.00,,,0.00,Rainwise IP-100,2013-03-10 21:51:00,
2013-03-10 14:56:00,73.8,32.0,29.48,North,360,0.0,-999.0,22,0.00,,,0.00,Rainwise IP-100,2013-03-10 21:56:00,
2013-03-10 15:01:00,74.5,32.0,29.49,WSW,247,3.7,-999.0,21,0.00,,,0.00,Rainwise IP-100,2013-03-10 22:01:00,
2013-03-10 15:06:00,74.9,32.0,29.49,West,270,3.5,-999.0,21,0.00,,,0.00,Rainwise IP-100,2013-03-10 22:06:00,
2013-03-10 15:11:00,74.5,31.0,29.49,WSW,247,7.5,-999.0,20,0.00,,,0.00,Rainwise IP-100,2013-03-10 22:11:00,
2013-03-10 15:16:00,74.1,32.0,29.48,WNW,292,1.2,-999.0,21,0.00,,,0.00,Rainwise IP-100,2013-03-10 22:16:00,
2013-03-10 15:21:00,74.2,32.0,29.49,NNW,337,3.7,-999.0,21,0.00,,,0.00,Rainwise IP-100,2013-03-10 22:21:00,
2013-03-10 15:26:00,74.8,31.0,29.48,WSW,247,0.0,-999.0,20,0.00,,,0.00,Rainwise IP-100,2013-03-10 22:26:00,
2013-03-10 15:31:00,75.1,32.0,29.48,WNW,292,0.0,-999.0,20,0.00,,,0.00,Rainwise IP-100,2013-03-10 22:31:00,
2013-03-10 15:36:00,75.4,35.0,29.48,WSW,247,0.0,-999.0,22,0.00,,,0.00,Rainwise IP-100,2013-03-10 22:36:00,
2013-03-10 15:41:00,75.5,33.0,29.48,WSW,247,0.0,-999.0,21,0.00,,,0.00,Rainwise IP-100,2013-03-10 22:41:00,
2013-03-10 15:46:00,75.6,31.0,29.48,WSW,247,2.8,-999.0,19,0.00,,,0.00,Rainwise IP-100,2013-03-10 22:46:00,
2013-03-10 15:51:00,75.8,31.0,29.48,SW,225,1.9,-999.0,19,0.00,,,0.00,Rainwise IP-100,2013-03-10 22:51:00,
2013-03-10 15:56:00,75.8,31.0,29.48,SSW,202,3.7,-999.0,19,0.00,,,0.00,Rainwise IP-100,2013-03-10 22:56:00,
2013-03-10 16:01:00,75.7,33.0,29.48,SSW,202,3.7,-999.0,21,0.00,,,0.00,Rainwise IP-100,2013-03-10 23:01:00,
2013-03-10 16:06:00,74.7,36.0,29.48,SSE,157,6.5,-999.0,24,0.00,,,0.00,Rainwise IP-100,2013-03-10 23:06:00,
2013-03-10 16:11:00,73.6,36.0,29.48,WSW,247,6.1,-999.0,25,0.00,,,0.00,Rainwise IP-100,2013-03-10 23:11:00,
2013-03-10 16:16:00,73.7,37.0,29.47,SSW,202,3.0,-999.0,26,0.00,,,0.00,Rainwise IP-100,2013-03-10 23:16:00,
2013-03-10 16:21:00,73.7,37.0,29.48,WSW,247,3.5,-999.0,26,0.00,,,0.00,Rainwise IP-100,2013-03-10 23:21:00,
2013-03-10 16:26:00,72.7,37.0,29.48,SSE,157,7.7,-999.0,27,0.00,,,0.00,Rainwise IP-100,2013-03-10 23:26:00,
2013-03-10 16:31:00,72.0,36.0,29.48,SSW,202,6.1,-999.0,27,0.00,,,0.00,Rainwise IP-100,2013-03-10 23:31:00,
2013-03-10 16:36:00,72.7,37.0,29.48,SSE,157,3.7,-999.0,27,0.00,,,0.00,Rainwise IP-100,2013-03-10 23:36:00,
2013-03-10 16:41:00,72.5,37.0,29.47,SW,225,3.5,-999.0,27,0.00,,,0.00,Rainwise IP-100,2013-03-10 23:41:00,
2013-03-10 16:46:00,72.4,37.0,29.47,WSW,247,6.8,-999.0,28,0.00,,,0.00,Rainwise IP-100,2013-03-10 23:46:00,
2013-03-10 16:51:00,72.8,38.0,29.47,South,180,2.8,-999.0,29,0.00,,,0.00,Rainwise IP-100,2013-03-10 23:51:00,
2013-03-10 16:56:00,72.5,39.0,29.46,SSW,202,1.9,-999.0,30,0.00,,,0.00,Rainwise IP-100,2013-03-10 23:56:00,
2013-03-10 17:01:00,71.9,39.0,29.47,SSE,157,3.3,-999.0,30,0.00,,,0.00,Rainwise IP-100,2013-03-11 00:01:00,
2013-03-10 17:06:00,72.0,39.0,29.46,SSW,202,4.9,-999.0,31,0.00,,,0.00,Rainwise IP-100,2013-03-11 00:06:00,
2013-03-10 17:11:00,72.3,41.0,29.47,SW,225,7.2,-999.0,32,0.00,,,0.00,Rainwise IP-100,2013-03-11 00:11:00,
2013-03-10 17:16:00,72.3,41.0,29.47,SW,225,8.4,-999.0,32,0.00,,,0.00,Rainwise IP-100,2013-03-11 00:16:00,
2013-03-10 17:21:00,72.1,40.0,29.46,SSE,157,4.9,-999.0,32,0.00,,,0.00,Rainwise IP-100,2013-03-11 00:21:00,
2013-03-10 17:26:00,71.6,41.0,29.47,SSE,157,0.0,-999.0,33,0.00,,,0.00,Rainwise IP-100,2013-03-11 00:26:00,
2013-03-10 17:31:00,71.6,41.0,29.46,South,180,3.5,-999.0,33,0.00,,,0.00,Rainwise IP-100,2013-03-11 00:31:00,
2013-03-10 17:36:00,70.9,41.0,29.46,SSW,202,2.6,-999.0,34,0.00,,,0.00,Rainwise IP-100,2013-03-11 00:36:00,
2013-03-10 17:41:00,70.4,41.0,29.47,SW,225,7.2,-999.0,34,0.00,,,0.00,Rainwise IP-100,2013-03-11 00:41:00,
2013-03-10 17:46:00,70.7,40.0,29.46,SSE,157,3.5,-999.0,33,0.00,,,0.00,Rainwise IP-100,2013-03-11 00:46:00,
2013-03-10 17:51:00,70.5,40.0,29.47,SW,225,4.2,-999.0,33,0.00,,,0.00,Rainwise IP-100,2013-03-11 00:51:00,
2013-03-10 17:56:00,70.2,40.0,29.46,SSW,202,2.6,-999.0,34,0.00,,,0.00,Rainwise IP-100,2013-03-11 00:56:00,
2013-03-10 18:01:00,69.9,40.0,29.46,SSW,202,0.0,-999.0,34,0.00,,,0.00,Rainwise IP-100,2013-03-11 01:01:00,
2013-03-10 18:06:00,69.8,40.0,29.46,SW,225,2.6,-999.0,34,0.00,,,0.00,Rainwise IP-100,2013-03-11 01:06:00,
2013-03-10 18:11:00,69.6,40.0,29.46,SSE,157,2.3,-999.0,34,0.00,,,0.00,Rainwise IP-100,2013-03-11 01:11:00,
2013-03-10 18:16:00,68.9,39.0,29.46,SW,225,5.6,-999.0,34,0.00,,,0.00,Rainwise IP-100,2013-03-11 01:16:00,
2013-03-10 18:21:00,68.6,39.0,29.47,SSW,202,4.7,-999.0,34,0.00,,,0.00,Rainwise IP-100,2013-03-11 01:21:00,
2013-03-10 18:26:00,68.3,39.0,29.47,SW,225,2.6,-999.0,34,0.00,,,0.00,Rainwise IP-100,2013-03-11 01:26:00,
2013-03-10 18:31:00,67.6,39.0,29.48,WSW,247,1.2,-999.0,35,0.00,,,0.00,Rainwise IP-100,2013-03-11 01:31:00,
2013-03-10 18:36:00,66.6,39.0,29.47,WSW,247,0.0,-999.0,36,0.00,,,0.00,Rainwise IP-100,2013-03-11 01:36:00,
2013-03-10 18:41:00,65.3,40.0,29.48,WSW,247,2.1,-999.0,39,0.00,,,0.00,Rainwise IP-100,2013-03-11 01:41:00,
2013-03-10 18:46:00,63.6,40.0,29.48,WSW,247,0.0,-999.0,42,0.00,,,0.00,Rainwise IP-100,2013-03-11 01:46:00,
2013-03-10 18:51:00,62.0,40.0,29.49,WSW,247,1.9,-999.0,45,0.00,,,0.00,Rainwise IP-100,2013-03-11 01:51:00,
2013-03-10 18:56:00,60.6,40.0,29.49,WSW,247,1.9,-999.0,47,0.00,,,0.00,Rainwise IP-100,2013-03-11 01:56:00,
2013-03-10 19:01:00,59.6,40.0,29.48,WSW,247,2.3,-999.0,49,0.00,,,0.00,Rainwise IP-100,2013-03-11 02:01:00,
2013-03-10 19:06:00,58.6,41.0,29.49,WSW,247,1.2,-999.0,51,0.00,,,0.00,Rainwise IP-100,2013-03-11 02:06:00,
2013-03-10 19:11:00,57.7,40.0,29.49,WSW,247,0.0,-999.0,53,0.00,,,0.00,Rainwise IP-100,2013-03-11 02:11:00,
2013-03-10 19:16:00,57.1,40.0,29.49,WSW,247,1.6,-999.0,54,0.00,,,0.00,Rainwise IP-100,2013-03-11 02:16:00,
2013-03-10 19:21:00,56.6,40.0,29.49,WSW,247,0.0,-999.0,55,0.00,,,0.00,Rainwise IP-100,2013-03-11 02:21:00,
2013-03-10 19:26:00,56.0,41.0,29.49,WSW,247,0.0,-999.0,57,0.00,,,0.00,Rainwise IP-100,2013-03-11 02:26:00,
2013-03-10 19:31:00,55.3,40.0,29.49,WSW,247,0.0,-999.0,57,0.00,,,0.00,Rainwise IP-100,2013-03-11 02:31:00,
2013-03-10 19:36:00,54.6,40.0,29.50,WSW,247,0.0,-999.0,58,0.00,,,0.00,Rainwise IP-100,2013-03-11 02:36:00,
2013-03-10 19:41:00,54.1,40.0,29.50,WSW,247,0.0,-999.0,59,0.00,,,0.00,Rainwise IP-100,2013-03-11 02:41:00,
2013-03-10 19:46:00,53.8,40.0,29.50,WSW,247,1.6,-999.0,59,0.00,,,0.00,Rainwise IP-100,2013-03-11 02:46:00,
2013-03-10 19:51:00,53.5,39.0,29.50,WSW,247,0.0,-999.0,59,0.00,,,0.00,Rainwise IP-100,2013-03-11 02:51:00,
2013-03-10 19:56:00,53.2,39.0,29.50,WSW,247,0.0,-999.0,60,0.00,,,0.00,Rainwise IP-100,2013-03-11 02:56:00,
2013-03-10 20:01:00,53.0,39.0,29.49,WNW,292,1.4,-999.0,60,0.00,,,0.00,Rainwise IP-100,2013-03-11 03:01:00,
2013-03-10 20:06:00,52.5,40.0,29.49,WNW,292,1.6,-999.0,62,0.00,,,0.00,Rainwise IP-100,2013-03-11 03:06:00,
2013-03-10 20:11:00,51.7,40.0,29.50,WNW,292,2.8,-999.0,64,0.00,,,0.00,Rainwise IP-100,2013-03-11 03:11:00,
2013-03-10 20:16:00,51.2,40.0,29.50,WNW,292,0.0,-999.0,65,0.00,,,0.00,Rainwise IP-100,2013-03-11 03:16:00,
2013-03-10 20:21:00,50.8,40.0,29.49,WSW,247,1.2,-999.0,65,0.00,,,0.00,Rainwise IP-100,2013-03-11 03:21:00,
2013-03-10 20:26:00,50.3,39.0,29.50,WSW,247,2.6,-999.0,66,0.00,,,0.00,Rainwise IP-100,2013-03-11 03:26:00,
2013-03-10 20:31:00,49.8,39.0,29.50,WSW,247,1.4,-999.0,68,0.00,,,0.00,Rainwise IP-100,2013-03-11 03:31:00,
2013-03-10 20:36:00,49.3,40.0,29.49,WSW,247,1.2,-999.0,70,0.00,,,0.00,Rainwise IP-100,2013-03-11 03:36:00,
2013-03-10 20:41:00,49.1,40.0,29.50,WSW,247,1.9,-999.0,70,0.00,,,0.00,Rainwise IP-100,2013-03-11 03:41:00,
2013-03-10 20:46:00,48.8,40.0,29.50,WSW,247,1.9,-999.0,70,0.00,,,0.00,Rainwise IP-100,2013-03-11 03:46:00,
2013-03-10 20:51:00,48.4,39.0,29.50,WSW,247,0.0,-999.0,71,0.00,,,0.00,Rainwise IP-100,2013-03-11 03:51:00,
2013-03-10 20:56:00,48.1,39.0,29.50,WSW,247,1.4,-999.0,72,0.00,,,0.00,Rainwise IP-100,2013-03-11 03:56:00,
2013-03-10 21:00:00,47.9,39.0,29.50,WSW,247,2.1,-999.0,72,0.00,,,0.00,Rainwise IP-100,2013-03-11 04:00:00,
2013-03-10 21:05:00,47.7,39.0,29.51,WSW,247,2.1,-999.0,73,0.00,,,0.00,Rainwise IP-100,2013-03-11 04:05:00,
2013-03-10 21:10:00,47.6,39.0,29.51,WSW,247,1.2,-999.0,73,0.00,,,0.00,Rainwise IP-100,2013-03-11 04:10:00,
2013-03-10 21:15:00,47.6,39.0,29.50,WSW,247,1.9,-999.0,73,0.00,,,0.00,Rainwise IP-100,2013-03-11 04:15:00,
2013-03-10 21:20:00,47.5,39.0,29.51,WSW,247,1.2,-999.0,73,0.00,,,0.00,Rainwise IP-100,2013-03-11 04:20:00,
2013-03-10 21:25:00,47.5,39.0,29.51,WSW,247,1.4,-999.0,73,0.00,,,0.00,Rainwise IP-100,2013-03-11 04:25:00,
2013-03-10 21:30:00,47.1,38.0,29.51,WSW,247,0.0,-999.0,73,0.00,,,0.00,Rainwise IP-100,2013-03-11 04:30:00,
2013-03-10 21:35:00,46.6,39.0,29.51,WSW,247,1.4,-999.0,74,0.00,,,0.00,Rainwise IP-100,2013-03-11 04:35:00,
2013-03-10 21:40:00,46.3,38.0,29.51,WSW,247,2.3,-999.0,74,0.00,,,0.00,Rainwise IP-100,2013-03-11 04:40:00,
2013-03-10 21:45:00,45.7,39.0,29.51,WSW,247,3.3,-999.0,76,0.00,,,0.00,Rainwise IP-100,2013-03-11 04:45:00,
2013-03-10 21:46:00,45.6,39.0,29.51,WSW,247,2.8,-999.0,76,0.00,,,0.00,Rainwise IP-100,2013-03-11 04:46:00,
2013-03-10 21:51:00,45.4,38.0,29.51,WSW,247,2.1,-999.0,77,0.00,,,0.00,Rainwise IP-100,2013-03-11 04:51:00,
2013-03-10 21:56:00,45.4,38.0,29.51,WSW,247,1.2,-999.0,78,0.00,,,0.00,Rainwise IP-100,2013-03-11 04:56:00,
2013-03-10 22:01:00,45.4,38.0,29.51,WSW,247,0.0,-999.0,78,0.00,,,0.00,Rainwise IP-100,2013-03-11 05:01:00,
2013-03-10 22:02:00,45.4,38.0,29.51,WSW,247,0.0,-999.0,78,0.00,,,0.00,Rainwise IP-100,2013-03-11 05:02:00,
2013-03-10 22:04:00,45.2,38.0,29.51,WSW,247,0.0,-999.0,78,0.00,,,0.00,Rainwise IP-100,2013-03-11 05:04:00,
2013-03-10 22:09:00,44.7,38.0,29.51,WSW,247,0.0,-999.0,78,0.00,,,0.00,Rainwise IP-100,2013-03-11 05:09:00,
2013-03-10 22:14:00,44.4,38.0,29.51,WSW,247,1.4,-999.0,80,0.00,,,0.00,Rainwise IP-100,2013-03-11 05:14:00,
2013-03-10 22:19:00,44.1,38.0,29.51,WSW,247,2.6,-999.0,80,0.00,,,0.00,Rainwise IP-100,2013-03-11 05:19:00,
2013-03-10 22:24:00,44.0,38.0,29.51,WSW,247,2.8,-999.0,80,0.00,,,0.00,Rainwise IP-100,2013-03-11 05:24:00,
2013-03-10 22:29:00,43.9,38.0,29.51,WSW,247,0.0,-999.0,81,0.00,,,0.00,Rainwise IP-100,2013-03-11 05:29:00,
2013-03-10 22:34:00,43.8,39.0,29.51,WSW,247,2.1,-999.0,82,0.00,,,0.00,Rainwise IP-100,2013-03-11 05:34:00,
2013-03-10 22:39:00,43.6,39.0,29.51,WSW,247,1.2,-999.0,82,0.00,,,0.00,Rainwise IP-100,2013-03-11 05:39:00,
2013-03-10 22:44:00,43.4,38.0,29.51,WSW,247,2.3,-999.0,82,0.00,,,0.00,Rainwise IP-100,2013-03-11 05:44:00,
2013-03-10 22:49:00,43.0,38.0,29.51,WSW,247,2.3,-999.0,83,0.00,,,0.00,Rainwise IP-100,2013-03-11 05:49:00,
2013-03-10 22:54:00,42.9,39.0,29.51,WSW,247,3.0,-999.0,84,0.00,,,0.00,Rainwise IP-100,2013-03-11 05:54:00,
2013-03-10 22:59:00,42.8,39.0,29.51,WSW,247,2.1,-999.0,84,0.00,,,0.00,Rainwise IP-100,2013-03-11 05:59:00,
2013-03-10 23:04:00,42.8,39.0,29.51,WSW,247,0.0,-999.0,85,0.00,,,0.00,Rainwise IP-100,2013-03-11 06:04:00,
2013-03-10 23:09:00,42.9,39.0,29.51,WSW,247,2.1,-999.0,85,0.00,,,0.00,Rainwise IP-100,2013-03-11 06:09:00,
2013-03-10 23:14:00,42.8,39.0,29.51,WSW,247,0.0,-999.0,84,0.00,,,0.00,Rainwise IP-100,2013-03-11 06:14:00,
2013-03-10 23:19:00,42.9,39.0,29.51,WSW,247,2.6,-999.0,84,0.00,,,0.00,Rainwise IP-100,2013-03-11 06:19:00,
2013-03-10 23:24:00,42.8,39.0,29.51,WSW,247,2.3,-999.0,84,0.00,,,0.00,Rainwise IP-100,2013-03-11 06:24:00,
2013-03-10 23:29:00,42.7,39.0,29.51,WSW,247,2.1,-999.0,84,0.00,,,0.00,Rainwise IP-100,2013-03-11 06:29:00,
2013-03-10 23:34:00,43.1,39.0,29.51,WSW,247,0.0,-999.0,84,0.00,,,0.00,Rainwise IP-100,2013-03-11 06:34:00,
2013-03-10 23:39:00,43.1,39.0,29.51,WSW,247,0.0,-999.0,84,0.00,,,0.00,Rainwise IP-100,2013-03-11 06:39:00,
2013-03-10 23:44:00,42.7,39.0,29.51,WSW,247,0.0,-999.0,84,0.00,,,0.00,Rainwise IP-100,2013-03-11 06:44:00,
2013-03-10 23:49:00,42.4,38.0,29.51,WSW,247,0.0,-999.0,84,0.00,,,0.00,Rainwise IP-100,2013-03-11 06:49:00,
2013-03-10 23:54:00,42.1,38.0,29.51,WSW,247,0.0,-999.0,85,0.00,,,0.00,Rainwise IP-100,2013-03-11 06:54:00,
2013-03-10 23:59:00,41.9,38.0,29.50,WSW,247,0.0,-999.0,85,0.00,,,0.00,Rainwise IP-100,2013-03-11 06:59:00,